• In Hungary
  • List of Countries
  • For 7 days
  • Water Temperature
  • Satellite Maps
  • Weather Map
  • News
  • Weather Widgets
  • user-avatar
    Login

    Hourly Weather Zacharzyn

    Today, 20 November, Monday

    Time Temperature Precipitation Wind Pressure Humidity
    00:00 +2°C° 0.5 mm 7 mps 747 mmHg 80%
    01:00 +2°C° 0 mm 6 mps 748 mmHg 82%
    02:00 +2°C° 0.1 mm 6 mps 748 mmHg 81%
    03:00 +2°C° 0.1 mm 6 mps 749 mmHg 80%
    04:00 +2°C° 0.1 mm 7 mps 750 mmHg 79%
    05:00 +1°C° 0 mm 6 mps 750 mmHg 78%
    06:00 +1°C° 0 mm 6 mps 751 mmHg 78%
    07:00 0°C° 0 mm 4 mps 751 mmHg 79%
    08:00 0°C° 0 mm 5 mps 752 mmHg 78%
    09:00 +1°C° 0 mm 5 mps 752 mmHg 78%
    10:00 +1°C° 0 mm 5 mps 753 mmHg 77%
    11:00 +1°C° 0 mm 5 mps 753 mmHg 77%
    12:00 +2°C° 0 mm 5 mps 753 mmHg 77%
    13:00 +2°C° 0 mm 5 mps 753 mmHg 77%
    14:00 +3°C° 0 mm 4 mps 753 mmHg 78%
    15:00 +3°C° 0 mm 4 mps 753 mmHg 80%
    16:00 +2°C° 0 mm 3 mps 753 mmHg 82%
    17:00 +2°C° 0 mm 3 mps 753 mmHg 84%
    18:00 +2°C° 0 mm 3 mps 753 mmHg 86%
    19:00 +1°C° 0 mm 3 mps 753 mmHg 88%
    20:00 +2°C° 0 mm 2 mps 753 mmHg 90%
    21:00 +2°C° 0 mm 2 mps 754 mmHg 91%
    22:00 +1°C° 0 mm 2 mps 754 mmHg 92%
    23:00 +1°C° 0 mm 2 mps 754 mmHg 93%

    Tomorrow, 21 November, Tuesday

    Time Temperature Precipitation Wind Pressure Humidity
    00:00 +2°C° 0 mm 1 mps 754 mmHg 93%
    01:00 +2°C° 0 mm 1 mps 754 mmHg 94%
    02:00 +2°C° 0 mm 1 mps 754 mmHg 94%
    03:00 +2°C° 0 mm 1 mps 754 mmHg 95%
    04:00 +2°C° 0 mm 1 mps 753 mmHg 96%
    05:00 +2°C° 0 mm 1 mps 753 mmHg 96%
    06:00 +2°C° 0 mm 1 mps 753 mmHg 96%
    07:00 +2°C° 0 mm 1 mps 753 mmHg 96%
    08:00 +3°C° 0 mm 1 mps 753 mmHg 94%
    09:00 +2°C° 0 mm 2 mps 753 mmHg 92%
    10:00 +3°C° 0 mm 2 mps 753 mmHg 90%
    11:00 +3°C° 0 mm 2 mps 753 mmHg 87%
    12:00 +4°C° 0 mm 2 mps 753 mmHg 84%
    13:00 +4°C° 0 mm 2 mps 753 mmHg 82%
    14:00 +4°C° 0 mm 2 mps 753 mmHg 85%
    15:00 +4°C° 0 mm 1 mps 753 mmHg 88%
    16:00 +4°C° 0 mm 1 mps 753 mmHg 91%
    17:00 +3°C° 0 mm 1 mps 753 mmHg 91%
    18:00 +2°C° 0 mm 2 mps 753 mmHg 92%
    19:00 +2°C° 0 mm 2 mps 753 mmHg 93%
    20:00 +2°C° 0 mm 2 mps 753 mmHg 93%
    21:00 +2°C° 0 mm 2 mps 753 mmHg 93%
    22:00 +2°C° 0 mm 2 mps 753 mmHg 93%
    23:00 +2°C° 0 mm 2 mps 753 mmHg 93%

    Day after tomorrow, 22 November, Wednesday

    Time Temperature Precipitation Wind Pressure Humidity
    00:00 +2°C° 0 mm 2 mps 753 mmHg 92%
    01:00 +2°C° 0 mm 2 mps 753 mmHg 92%
    02:00 +1°C° 0.2 mm 3 mps 752 mmHg 92%
    03:00 +1°C° 0.2 mm 3 mps 752 mmHg 91%
    04:00 +1°C° 0.2 mm 3 mps 752 mmHg 91%
    05:00 0°C° 0.7 mm 4 mps 751 mmHg 92%
    06:00 +1°C° 0.7 mm 4 mps 751 mmHg 93%
    07:00 +1°C° 0.7 mm 4 mps 751 mmHg 93%
    08:00 +3°C° 0.2 mm 4 mps 751 mmHg 94%
    09:00 +3°C° 0.2 mm 4 mps 751 mmHg 94%
    10:00 +4°C° 0.2 mm 3 mps 751 mmHg 95%
    11:00 +4°C° 0.1 mm 3 mps 751 mmHg 93%
    12:00 +5°C° 0.1 mm 3 mps 751 mmHg 92%
    13:00 +7°C° 0.1 mm 3 mps 751 mmHg 90%
    14:00 +7°C° 0 mm 3 mps 751 mmHg 91%
    15:00 +7°C° 0 mm 3 mps 751 mmHg 92%
    16:00 +5°C° 0 mm 3 mps 751 mmHg 93%
    17:00 +5°C° 0 mm 3 mps 752 mmHg 94%
    18:00 +5°C° 0 mm 3 mps 752 mmHg 94%
    19:00 +6°C° 0 mm 2 mps 752 mmHg 94%
    20:00 +5°C° 0 mm 3 mps 752 mmHg 94%
    21:00 +5°C° 0 mm 3 mps 752 mmHg 94%
    22:00 +4°C° 0 mm 3 mps 753 mmHg 94%
    23:00 +4°C° 0 mm 3 mps 753 mmHg 94%

    23 November, Thursday

    Time Temperature Precipitation Wind Pressure Humidity
    00:00 +4°C° 0 mm 3 mps 753 mmHg 93%
    01:00 +4°C° 0 mm 3 mps 753 mmHg 93%
    02:00 +3°C° 0 mm 3 mps 753 mmHg 92%
    03:00 +3°C° 0 mm 3 mps 753 mmHg 91%
    04:00 +3°C° 0 mm 3 mps 752 mmHg 90%
    05:00 +3°C° 0 mm 4 mps 752 mmHg 89%
    06:00 +3°C° 0 mm 4 mps 752 mmHg 87%
    07:00 +3°C° 0 mm 4 mps 752 mmHg 85%
    08:00 +4°C° 0 mm 4 mps 752 mmHg 81%
    09:00 +5°C° 0 mm 4 mps 752 mmHg 77%
    10:00 +5°C° 0 mm 5 mps 753 mmHg 72%
    11:00 +6°C° 0 mm 5 mps 753 mmHg 70%
    12:00 +7°C° 0 mm 5 mps 753 mmHg 67%
    13:00 +8°C° 0 mm 5 mps 753 mmHg 65%
    14:00 +8°C° 0 mm 4 mps 753 mmHg 69%
    15:00 +7°C° 0 mm 4 mps 753 mmHg 73%
    16:00 +7°C° 0 mm 4 mps 754 mmHg 76%
    17:00 +7°C° 0 mm 4 mps 754 mmHg 79%
    18:00 +7°C° 0 mm 4 mps 754 mmHg 81%
    19:00 +7°C° 0 mm 4 mps 755 mmHg 84%
    20:00 +7°C° 0 mm 4 mps 755 mmHg 86%
    21:00 +6°C° 0 mm 4 mps 756 mmHg 88%
    22:00 +6°C° 0 mm 4 mps 756 mmHg 90%
    23:00 +7°C° 0 mm 3 mps 757 mmHg 91%

    24 November, Friday

    Time Temperature Precipitation Wind Pressure Humidity
    00:00 +7°C° 0 mm 3 mps 757 mmHg 92%
    01:00 +7°C° 0 mm 3 mps 757 mmHg 93%
    02:00 +7°C° 0 mm 3 mps 757 mmHg 94%
    03:00 +7°C° 0 mm 3 mps 757 mmHg 94%
    04:00 +7°C° 0 mm 3 mps 758 mmHg 95%
    05:00 +7°C° 0 mm 3 mps 758 mmHg 95%
    06:00 +5°C° 0 mm 3 mps 758 mmHg 96%
    07:00 +5°C° 0 mm 3 mps 758 mmHg 96%
    08:00 +7°C° 0 mm 3 mps 759 mmHg 94%
    09:00 +8°C° 0 mm 3 mps 759 mmHg 92%
    10:00 +7°C° 0 mm 4 mps 759 mmHg 90%
    11:00 +8°C° 0 mm 4 mps 759 mmHg 87%
    12:00 +10°C° 0 mm 4 mps 758 mmHg 84%
    13:00 +11°C° 0 mm 4 mps 758 mmHg 81%
    14:00 +10°C° 0 mm 4 mps 758 mmHg 83%
    15:00 +10°C° 0 mm 4 mps 758 mmHg 86%
    16:00 +8°C° 0 mm 4 mps 758 mmHg 88%
    17:00 +8°C° 0 mm 4 mps 758 mmHg 88%
    18:00 +8°C° 0 mm 4 mps 758 mmHg 88%
    19:00 +8°C° 0 mm 4 mps 758 mmHg 88%
    20:00 +7°C° 0 mm 4 mps 758 mmHg 88%
    21:00 +7°C° 0 mm 4 mps 758 mmHg 88%
    22:00 +7°C° 0 mm 4 mps 758 mmHg 87%
    23:00 +7°C° 0 mm 4 mps 758 mmHg 87%

    25 November, Saturday

    Time Temperature Precipitation Wind Pressure Humidity
    00:00 +7°C° 0 mm 4 mps 758 mmHg 86%
    01:00 +8°C° 0 mm 3 mps 758 mmHg 85%
    02:00 +8°C° 0 mm 3 mps 758 mmHg 84%
    03:00 +8°C° 0 mm 3 mps 757 mmHg 83%
    04:00 +8°C° 0 mm 3 mps 757 mmHg 82%
    05:00 +7°C° 0 mm 4 mps 757 mmHg 82%
    06:00 +7°C° 0 mm 4 mps 757 mmHg 81%
    07:00 +7°C° 0 mm 4 mps 757 mmHg 80%
    08:00 +7°C° 0 mm 4 mps 757 mmHg 77%
    09:00 +8°C° 0 mm 4 mps 757 mmHg 74%
    10:00 +8°C° 0 mm 4 mps 757 mmHg 71%
    11:00 +10°C° 0 mm 4 mps 756 mmHg 69%
    12:00 +10°C° 0 mm 4 mps 756 mmHg 66%
    13:00 +11°C° 0 mm 4 mps 755 mmHg 64%
    14:00 +11°C° 0 mm 4 mps 755 mmHg 66%
    15:00 +10°C° 0 mm 4 mps 754 mmHg 69%
    16:00 +8°C° 0 mm 4 mps 754 mmHg 72%
    17:00 +8°C° 0 mm 5 mps 754 mmHg 71%
    18:00 +8°C° 0 mm 5 mps 754 mmHg 70%
    19:00 +8°C° 0 mm 5 mps 754 mmHg 70%
    20:00 +8°C° 0 mm 5 mps 754 mmHg 70%
    21:00 +8°C° 0 mm 5 mps 754 mmHg 69%
    22:00 +8°C° 0 mm 5 mps 754 mmHg 69%
    23:00 +8°C° 0 mm 5 mps 754 mmHg 71%
    Show more